Hugo, OK

11:50 AM CDT on March 25, 2017 (GMT -0500)
Stamper Municipal

Weather History for KHHW - November, 2012

Change the Weather History Date:

Thursday, November 8, 2012

  Actual Average Record
Temperature  
Mean Temperature 58 °F -  
Max Temperature 73 °F 64 °F 72 °F (2013)
Min Temperature 43 °F 44 °F 42 °F (2014)
Degree Days  
Heating Degree Days 7    
Growing Degree Days 8 (Base 50)    
Moisture  
Dew Point 42 °F    
Average Humidity 55    
Maximum Humidity 75    
Minimum Humidity 39    
Precipitation  
Precipitation 0.00 in - - ()
Sea Level Pressure  
Sea Level Pressure 30.08 in    
Wind  
Wind Speed 8 mph ()    
Max Wind Speed 15 mph    
Max Gust Speed 23 mph    
Visibility 10.0 miles    
Events      
Averages and records for this station are not official NWS values.
T = Trace of Precipitation, MM = Missing Value Source: Averaged Metar Reports

Daily Weather History Graph

Daily Weather History Graph

Search for Another Location

Airport or City:

Trip Planner

Search our weather history database for the weather conditions in past years. The results will help you decide how hot, cold, wet, or windy it might be!

Date:

Astronomy

Nov. 08, 2012 Rise Set
Actual Time 6:48 AM CST 5:22 PM CST
Civil Twilight 6:22 AM CST 5:49 PM CST
Nautical Twilight 5:52 AM CST 6:18 PM CST
Astronomical Twilight 5:23 AM CST 6:48 PM CST
Moon 1:00 AM CST (11/8) 1:50 PM CST (11/8)
Length of Visible Light 11h 26m
Length of Day
10h 34m
Waning Crescent, 32% of the Moon is Illuminated
Nov 8
Waning Crescent
Nov 13
New
Nov 20
First Quarter
Nov 28
Full
Dec 6
Last Quarter

Hourly Weather History & Observations

Time (CST) Temp. Windchill Dew Point Humidity Pressure Visibility Wind Dir Wind Speed Gust Speed Precip Events Conditions
12:15 AM 47.7 °F - 36.0 °F 64% 30.12 in 10.0 mi East 3.5 mph - N/A   Clear
12:35 AM 46.8 °F - 35.2 °F 64% 30.12 in 10.0 mi ESE 4.6 mph - N/A   Clear
12:55 AM 46.4 °F 43.5 °F 35.6 °F 66% 30.11 in 10.0 mi ESE 5.8 mph - N/A   Clear
1:15 AM 47.3 °F - 35.1 °F 62% 30.11 in 10.0 mi ESE 6.9 mph - N/A   Clear
1:35 AM 46.6 °F - 34.5 °F 63% 30.11 in 10.0 mi ESE 6.9 mph - N/A   Clear
1:55 AM 45.7 °F 42.7 °F 34.0 °F 64% 30.11 in 10.0 mi ESE 5.8 mph - N/A   Clear
2:15 AM 45.5 °F 42.5 °F 33.8 °F 64% 30.12 in 10.0 mi ESE 5.8 mph - N/A   Clear
2:35 AM 45.5 °F 41.8 °F 33.8 °F 64% 30.12 in 10.0 mi ESE 6.9 mph - N/A   Clear
2:55 AM 45.7 °F 42.0 °F 33.6 °F 63% 30.11 in 10.0 mi ESE 6.9 mph - N/A   Clear
3:15 AM 45.5 °F 41.8 °F 33.1 °F 62% 30.12 in 10.0 mi East 6.9 mph - N/A   Clear
3:35 AM 45.9 °F 42.3 °F 32.9 °F 61% 30.12 in 10.0 mi ESE 6.9 mph - N/A   Clear
3:55 AM 46.2 °F 41.2 °F 33.3 °F 61% 30.12 in 10.0 mi ESE 10.4 mph - N/A   Clear
4:15 AM 46.0 °F 41.0 °F 33.8 °F 62% 30.13 in 10.0 mi East 10.4 mph - N/A   Clear
4:35 AM 45.5 °F 41.3 °F 34.0 °F 64% 30.13 in 10.0 mi East 8.1 mph - N/A   Clear
4:55 AM 44.8 °F 39.4 °F 34.2 °F 66% 30.13 in 10.0 mi East 10.4 mph - N/A   Clear
5:15 AM 44.6 °F 39.7 °F 34.5 °F 68% 30.14 in 10.0 mi ESE 9.2 mph - N/A   Clear
5:35 AM 44.6 °F 40.2 °F 34.9 °F 69% 30.13 in 10.0 mi ESE 8.1 mph - N/A   Clear
5:55 AM 44.1 °F 39.5 °F 35.2 °F 71% 30.14 in 10.0 mi ESE 8.1 mph - N/A   Clear
6:15 AM 43.9 °F 38.8 °F 35.6 °F 73% 30.15 in 10.0 mi ESE 9.2 mph - N/A   Clear
6:55 AM 43.7 °F 38.6 °F 36.1 °F 75% 30.15 in 10.0 mi ESE 9.2 mph - N/A   Clear
7:15 AM 44.4 °F 40.0 °F 36.5 °F 74% 30.16 in 10.0 mi ESE 8.1 mph - N/A   Clear
7:35 AM 45.7 °F 41.0 °F 36.7 °F 71% 30.17 in 10.0 mi ESE 9.2 mph - N/A   Clear
7:55 AM 47.3 °F - 36.7 °F 67% 30.18 in 10.0 mi SE 9.2 mph - N/A   Clear
8:15 AM 48.6 °F - 37.0 °F 64% 30.18 in 10.0 mi SE 12.7 mph 19.6 mph N/A   Clear
8:35 AM 49.8 °F - 37.2 °F 62% 30.18 in 10.0 mi ESE 10.4 mph - N/A   Clear
8:55 AM 51.8 °F - 37.4 °F 58% 30.18 in 10.0 mi ESE 10.4 mph - N/A   Clear
9:15 AM 53.1 °F - 37.6 °F 56% 30.18 in 10.0 mi ESE 10.4 mph 18.4 mph N/A   Clear
9:35 AM 54.9 °F - 37.8 °F 53% 30.17 in 10.0 mi SE 9.2 mph 16.1 mph N/A   Clear
9:55 AM 56.5 °F - 37.8 °F 50% 30.17 in 10.0 mi SE 9.2 mph - N/A   Clear
10:15 AM 58.1 °F - 38.3 °F 48% 30.16 in 10.0 mi SE 10.4 mph 18.4 mph N/A   Clear
10:35 AM 60.3 °F - 39.0 °F 45% 30.15 in 10.0 mi ESE 10.4 mph 17.3 mph N/A   Clear
10:55 AM 61.5 °F - 38.7 °F 43% 30.15 in 10.0 mi SE 11.5 mph 17.3 mph N/A   Scattered Clouds
11:15 AM 63.9 °F - 39.7 °F 41% 30.13 in 10.0 mi SE 10.4 mph - N/A   Scattered Clouds
11:35 AM 66.2 °F - 40.5 °F 39% 30.12 in 10.0 mi SSE 11.5 mph 16.1 mph N/A   Clear
11:55 AM 67.1 °F - 41.7 °F 40% 30.11 in 10.0 mi SSE 10.4 mph 17.3 mph N/A   Clear
12:15 PM 68.2 °F - 43.0 °F 40% 30.09 in 10.0 mi SE 11.5 mph 19.6 mph N/A   Clear
12:35 PM 70.0 °F - 44.2 °F 40% 30.07 in 10.0 mi SE 12.7 mph 18.4 mph N/A   Clear
12:55 PM 69.8 °F - 44.4 °F 40% 30.06 in 10.0 mi South 10.4 mph 19.6 mph N/A   Clear
1:15 PM 71.2 °F - 46.6 °F 41% 30.05 in 10.0 mi South 10.4 mph 19.6 mph N/A   Clear
1:35 PM 72.0 °F - 46.8 °F 41% 30.03 in 10.0 mi SSE 11.5 mph 20.7 mph N/A   Clear
1:55 PM 72.7 °F - 47.5 °F 41% 30.03 in 10.0 mi SSE 10.4 mph 17.3 mph N/A   Clear
2:15 PM 73.2 °F - 48.7 °F 42% 30.02 in 10.0 mi SSE 12.7 mph 21.9 mph N/A   Clear
2:35 PM 73.4 °F - 49.6 °F 43% 30.01 in 10.0 mi South 15.0 mph 23.0 mph N/A   Clear
2:55 PM 73.8 °F - 50.0 °F 43% 30.01 in 10.0 mi SSE 13.8 mph 18.4 mph N/A   Clear
3:15 PM 73.8 °F - 50.0 °F 43% 30.00 in 10.0 mi SSE 10.4 mph 18.4 mph N/A   Clear
3:35 PM 73.8 °F - 50.0 °F 43% 30.00 in 10.0 mi SSE 12.7 mph 17.3 mph N/A   Clear
3:55 PM 73.4 °F - 49.8 °F 43% 30.00 in 10.0 mi SSE 9.2 mph 17.3 mph N/A   Clear
4:15 PM 72.5 °F - 49.5 °F 44% 30.00 in 10.0 mi SSE 9.2 mph 17.3 mph N/A   Clear
4:35 PM 71.8 °F - 49.3 °F 45% 29.99 in 10.0 mi SSE 10.4 mph 18.4 mph N/A   Clear
4:55 PM 70.2 °F - 49.1 °F 47% 30.00 in 10.0 mi SSE 9.2 mph 16.1 mph N/A   Clear
5:15 PM 68.9 °F - 48.6 °F 48% 30.00 in 10.0 mi SSE 10.4 mph - N/A   Clear
5:35 PM 67.8 °F - 48.0 °F 49% 30.00 in 10.0 mi SSE 9.2 mph - N/A   Clear
5:55 PM 67.3 °F - 47.7 °F 49% 30.01 in 10.0 mi SE 10.4 mph 16.1 mph N/A   Clear
6:15 PM 66.6 °F - 47.5 °F 50% 30.01 in 10.0 mi SSE 10.4 mph 17.3 mph N/A   Clear
6:35 PM 66.2 °F - 47.3 °F 51% 30.02 in 10.0 mi SE 10.4 mph - N/A   Clear
6:55 PM 65.3 °F - 47.3 °F 52% 30.02 in 10.0 mi SE 8.1 mph - N/A   Clear
7:15 PM 64.6 °F - 46.9 °F 53% 30.02 in 10.0 mi SSE 9.2 mph - N/A   Clear
7:35 PM 64.0 °F - 46.4 °F 53% 30.02 in 10.0 mi SSE 12.7 mph 16.1 mph N/A   Clear
7:55 PM 64.2 °F - 46.2 °F 52% 30.02 in 10.0 mi SSE 12.7 mph 18.4 mph N/A   Clear
8:15 PM 63.9 °F - 45.9 °F 52% 30.03 in 10.0 mi SSE 10.4 mph - N/A   Clear
8:35 PM 63.7 °F - 45.9 °F 52% 30.03 in 10.0 mi SSE 8.1 mph - N/A   Clear
8:55 PM 63.1 °F - 45.9 °F 53% 30.03 in 10.0 mi SE 5.8 mph - N/A   Clear
9:15 PM 61.9 °F - 45.9 °F 56% 30.03 in 10.0 mi SE 8.1 mph - N/A   Clear
9:35 PM 61.5 °F - 45.9 °F 56% 30.03 in 10.0 mi SE 9.2 mph - N/A   Clear
9:55 PM 61.7 °F - 45.9 °F 56% 30.03 in 10.0 mi SE 6.9 mph 17.3 mph N/A   Clear
10:15 PM 60.4 °F - 45.7 °F 58% 30.03 in 10.0 mi SE 4.6 mph - N/A   Clear
10:35 PM 60.3 °F - 45.5 °F 58% 30.03 in 10.0 mi SE 6.9 mph - N/A   Clear
10:55 PM 60.4 °F - 45.5 °F 58% 30.03 in 10.0 mi SE 9.2 mph - N/A   Clear
11:15 PM 60.4 °F - 45.7 °F 58% 30.03 in 10.0 mi SE 11.5 mph 16.1 mph N/A   Clear
11:35 PM 59.7 °F - 45.7 °F 60% 30.02 in 10.0 mi SE 8.1 mph 16.1 mph N/A   Clear
11:55 PM 58.3 °F - 45.1 °F 62% 30.02 in 10.0 mi SE 9.2 mph - N/A   Clear